Location: *
(37.9500°N, 27.3666°E)
Time: 21:27:40
(UTC+00:00)

N. Korean satellite - Visible Passes

Search period start: 28 November 2022 00:00
Search period end: 08 December 2022 00:00
Orbit: 422 x 454 km, 97.3° (Epoch: 28 November)

Date Brightness Start Highest point End Pass type
(mag) Time Alt. Az. Time Alt. Az. Time Alt. Az.
28 Nov 9.0 02:46:46 10° NE 02:49:27 21° E 02:52:07 10° SSE visible
28 Nov 7.9 04:19:27 10° NNW 04:21:48 18° WNW 04:24:09 10° WSW visible
29 Nov 6.3 03:39:58 10° N 03:43:21 60° WNW 03:46:41 10° SSW visible
29 Nov 9.8 15:41:33 10° SW 15:43:18 14° W 15:45:05 10° WNW visible
30 Nov 8.1 03:01:30 10° NNE 03:04:39 34° E 03:07:45 10° SSE visible
30 Nov 8.4 04:35:35 10° NW 04:36:48 12° WNW 04:38:00 10° W visible
01 Dec 10.0 02:25:16 10° E 02:25:41 10° E 02:26:06 10° E visible
01 Dec 6.9 03:55:12 10° N 03:58:21 35° WNW 04:01:27 10° SW visible
02 Dec 7.0 03:16:17 10° NNE 03:19:39 57° E 03:22:57 10° S visible
03 Dec 9.4 02:38:30 10° NE 02:40:41 16° E 02:42:52 10° SE visible
03 Dec 7.6 04:10:26 10° NNW 04:13:09 23° WNW 04:15:50 10° SW visible
04 Dec 6.2 03:31:04 10° N 03:34:28 84° W 03:37:49 10° SSW visible
04 Dec 9.6 15:31:51 10° SW 15:34:15 18° W 15:36:40 10° NW visible
05 Dec 8.7 02:52:40 10° NE 02:55:31 25° E 02:58:20 10° SSE visible
05 Dec 8.1 04:25:47 10° NNW 04:27:47 15° WNW 04:29:45 10° WSW visible
06 Dec 6.5 03:45:48 10° N 03:49:05 49° WNW 03:52:20 10° SSW visible
06 Dec 9.9 15:47:41 10° WSW 15:48:58 12° W 15:50:15 10° WNW visible
07 Dec 7.7 03:06:57 10° NNE 03:10:09 39° E 03:13:18 10° S visible
